Vorticity
6 6 3 2 3 5 4 3 3 3 3 3 2 2 2 1 1 1 1 1 1 1 1 1 1 1 1 1 1 1 1 1 2 2 4 4 5 5 5 5 6 6 6 7 7 8 9 9 9 7 6 5 5 5 5 5 5 5 5 5 5 5 5 5 5 5 6 6 6 6 6 6 6 6 6 5 5 5 5 5 5 5 5 5 5 5 5 5 5 5 5 5 5 5 5 5 5 5 6 6 6 6 6
5 6 6 4 4 4 5 4 3 3 3 3 3 2 2 2 1 1 0 0 1 1 2 2 1 1 1 1 1 2 2 2 2 3 4 5 5 5 5 6 6 6 6 7 7 8 10 10 9 7 6 6 6 5 5 4 4 4 4 4 4 4 4 4 4 4 5 5 5 5 6 6 6 6 6 6 6 5 5 5 5 5 5 6 5 5 5 5 5 5 5 5 5 5 5 5 5 5 6 6 6 6 6
5 6 9 6 5 4 5 4 4 3 3 3 3 3 2 2 2 1 0 0 0 1 1 1 1 1 1 1 2 2 2 3 3 4 5 5 5 5 5 6 6 6 6 7 8 9 10 10 9 7 6 6 6 6 5 4 4 3 4 4 4 4 4 4 4 4 4 4 4 5 5 5 6 6 6 6 6 5 5 5 5 5 6 6 6 6 5 5 5 5 5 5 5 5 5 5 5 6 6 6 6 6 6
4 6 10 9 6 4 4 4 4 4 3 4 3 3 3 2 2 2 0 0 -0 0 1 1 1 1 1 1 2 2 3 3 4 4 5 5 5 5 5 6 6 6 6 7 8 9 10 10 9 8 7 6 6 6 5 4 4 4 4 3 3 3 3 3 3 3 4 4 4 4 4 4 5 5 5 5 5 5 5 5 5 6 6 6 6 6 6 5 5 5 5 5 5 5 5 5 6 6 6 6 6 6 6
4 4 9 9 8 5 4 4 4 4 4 4 4 4 4 1 2 2 1 0 -0 -0 0 1 1 1 1 1 2 2 3 3 4 5 6 5 5 5 5 6 6 6 7 7 8 9 10 10 9 8 7 7 6 6 5 5 4 4 4 4 4 4 4 4 4 4 4 4 4 4 4 4 4 4 4 5 5 5 5 5 5 5 6 6 6 6 6 6 6 5 5 5 5 5 6 6 6 6 6 6 6 6 6
3 2 7 9 8 6 4 4 4 4 4 4 4 4 4 3 3 3 3 1 0 -0 0 1 1 1 1 1 2 2 3 4 4 5 6 5 5 5 5 6 6 6 6 7 8 9 10 9 9 8 7 7 6 6 5 5 5 5 5 5 4 4 4 4 4 4 4 4 4 4 4 4 4 4 4 4 4 4 4 5 5 5 6 6 6 6 6 6 6 6 6 6 6 6 6 6 6 6 6 6 6 6 6
4 2 5 8 8 7 5 4 4 4 4 4 3 3 3 5 5 5 6 4 2 1 1 1 1 2 2 2 2 2 3 4 4 5 6 5 5 5 6 6 6 6 6 7 8 8 9 9 8 7 7 7 6 6 5 5 5 6 6 6 6 5 5 5 5 4 4 4 4 4 4 4 4 4 4 4 4 4 4 4 5 5 5 6 6 6 6 6 6 6 6 6 6 6 6 6 6 6 6 6 6 6 6
6 3 4 7 8 8 6 5 4 4 4 4 4 3 1 2 3 5 7 6 4 2 2 2 2 2 2 2 2 2 3 4 4 5 5 5 5 5 6 6 6 6 6 7 7 8 8 8 8 7 7 6 6 6 5 5 6 6 6 6 6 6 6 6 5 5 5 5 4 4 4 4 5 5 5 5 5 4 4 4 4 5 5 5 6 6 6 7 7 7 7 7 7 7 7 7 7 6 6 6 6 6 6
6 4 3 6 8 8 7 6 5 4 4 4 4 4 3 0 1 2 5 5 4 3 3 2 2 2 2 2 2 2 3 4 4 5 5 5 5 5 6 6 6 6 6 7 7 7 8 7 7 7 6 6 6 6 5 5 5 6 6 6 6 6 6 6 6 6 5 5 5 5 5 5 5 5 5 5 5 5 5 5 4 5 5 5 5 6 6 6 7 7 7 7 7 7 7 7 7 7 6 6 6 6 6
7 6 4 5 7 8 8 7 6 5 4 4 4 4 5 2 2 2 4 4 4 3 3 3 2 2 2 2 2 2 3 4 4 5 5 4 4 5 5 5 5 6 6 6 7 7 7 7 7 7 6 6 6 5 5 5 5 6 6 6 6 6 6 6 6 6 5 5 5 5 5 5 5 6 6 6 6 6 5 5 5 5 5 5 5 5 6 6 6 7 7 7 7 7 7 7 7 7 7 6 6 6 5
8 6 5 5 6 8 8 7 6 6 5 4 4 4 4 3 3 4 5 4 3 3 3 3 2 2 2 2 2 2 3 4 5 5 4 4 4 5 5 5 5 5 6 6 6 6 6 6 6 6 6 6 6 5 5 4 4 5 5 6 5 5 5 5 5 5 5 5 5 5 5 5 5 6 6 6 6 6 6 6 5 5 5 5 5 5 5 6 6 6 7 7 7 7 7 7 7 6 6 6 6 5 4
9 7 6 5 6 7 8 7 7 6 6 5 4 4 4 3 3 4 6 5 4 4 3 3 3 2 2 2 2 2 3 4 5 5 4 4 4 4 4 4 4 4 5 6 6 6 6 6 6 6 6 6 6 5 4 4 4 4 5 5 5 5 5 5 5 4 4 4 4 4 5 5 5 5 5 6 6 6 6 6 6 6 5 5 5 5 5 5 5 6 6 6 6 6 6 6 6 6 5 5 4 4 3
9 8 6 6 6 7 8 7 7 6 6 6 5 4 4 3 3 4 6 6 5 4 4 3 3 2 2 2 2 2 3 4 5 5 4 4 4 4 4 4 4 4 4 5 6 6 5 6 5 6 6 6 5 4 4 3 3 3 4 4 4 4 4 4 4 4 4 4 4 4 4 4 5 5 5 5 5 6 6 6 6 6 6 5 5 5 5 5 5 5 5 5 6 6 6 5 5 5 4 4 4 3 3
9 9 7 6 6 6 7 7 7 6 6 6 5 5 4 4 3 2 5 6 6 4 4 3 3 2 2 2 2 2 3 4 5 5 4 4 4 4 4 3 3 4 4 5 5 5 5 5 5 5 6 6 5 4 4 3 2 3 3 4 4 4 4 4 4 4 4 4 4 4 4 4 4 4 4 5 5 5 6 6 6 6 6 5 5 5 5 5 4 4 4 4 4 4 4 4 4 4 4 3 3 3 2
8 8 7 5 5 6 7 7 7 6 6 6 6 6 5 5 4 3 3 5 5 4 4 3 3 2 2 2 2 3 4 4 5 5 4 3 3 3 3 3 3 3 4 4 5 5 5 5 5 5 5 5 4 4 3 3 2 2 3 3 3 3 4 4 4 4 4 4 4 4 4 4 4 4 4 4 4 5 5 5 5 5 5 5 5 5 5 4 4 4 4 4 4 4 4 4 4 4 3 3 3 3 3
8 8 6 4 4 5 6 8 8 7 6 6 6 6 6 6 5 4 3 4 4 4 3 3 3 2 2 2 3 3 4 5 5 5 4 3 3 3 3 3 3 3 4 4 4 5 5 4 4 4 5 4 4 3 3 2 2 2 2 2 3 3 3 4 4 5 5 5 5 4 4 4 4 4 4 4 4 4 5 5 5 5 5 5 5 5 4 4 4 4 4 4 4 4 4 4 4 4 4 4 4 4 4
10 9 6 3 2 3 5 7 8 8 6 5 5 5 6 6 5 4 3 3 4 4 3 3 3 2 2 3 3 4 5 5 5 4 4 3 3 3 3 3 3 3 4 4 4 5 5 4 4 4 4 4 3 3 3 2 2 2 2 2 2 3 3 4 4 5 5 5 5 5 5 5 5 5 5 4 4 4 4 4 4 5 5 5 4 4 4 4 4 4 4 4 4 4 4 4 4 4 4 4 4 5 5
9 11 8 4 2 2 3 5 7 8 7 5 4 4 6 6 6 5 3 3 3 4 3 3 3 3 3 3 4 5 5 6 5 4 4 3 3 3 3 3 3 3 4 4 4 4 5 4 4 4 4 3 3 3 3 2 2 2 2 2 2 3 3 4 4 5 5 5 6 6 6 6 5 5 5 5 5 4 4 4 4 4 4 4 4 4 4 4 4 4 4 4 4 4 4 4 4 4 4 5 5 5 5
8 12 9 5 2 2 2 4 6 7 7 6 5 4 5 5 6 5 5 4 4 4 4 4 3 3 3 4 4 6 6 6 5 4 3 3 3 2 3 3 3 3 4 4 4 4 5 5 4 4 4 3 3 3 3 2 2 2 2 2 2 2 3 4 5 5 5 6 6 6 6 6 6 6 5 5 5 5 4 4 4 4 4 4 4 4 4 4 5 5 4 4 4 4 5 5 5 5 5 5 5 5 6
6 9 8 6 3 2 2 3 4 6 7 7 6 6 5 5 5 5 5 5 4 4 4 4 4 4 4 4 6 6 6 6 5 4 3 3 2 2 2 3 3 3 3 4 4 4 5 5 5 4 4 3 3 3 3 2 2 2 2 2 2 3 3 4 5 5 6 6 6 6 6 6 6 6 5 5 5 5 4 4 4 4 4 4 4 4 4 4 4 4 4 5 5 5 5 5 5 5 5 5 5 5 6
4 6 7 5 4 3 2 2 3 4 6 6 7 7 6 5 5 5 5 5 5 5 5 5 5 5 5 6 6 7 7 6 5 4 3 2 2 2 2 2 3 3 3 4 4 4 4 5 5 5 4 3 3 3 3 3 2 2 2 3 3 3 4 5 6 6 6 6 6 6 6 6 6 6 5 5 5 4 4 4 4 4 4 4 4 4 4 4 4 4 4 5 5 5 5 5 5 5 5 5 5 5 5
6 5 6 4 4 3 2 2 3 3 4 4 6 7 7 6 6 6 6 6 6 6 6 6 6 6 6 7 7 7 7 6 5 4 3 2 2 2 2 2 2 3 3 4 4 4 4 5 5 5 4 4 3 4 4 3 3 3 3 3 3 4 4 5 6 6 6 6 6 6 6 6 5 5 5 5 4 4 4 4 4 4 4 4 4 4 4 4 4 4 4 5 5 5 5 5 5 5 5 5 5 5 5
9 3 2 2 3 4 3 3 3 3 3 2 4 7 7 7 7 7 6 6 6 6 6 7 7 7 8 8 8 8 7 6 4 3 2 2 2 2 2 2 2 3 3 4 4 4 4 4 5 5 5 4 4 4 4 4 4 3 3 4 4 4 4 5 6 6 6 6 5 5 5 5 5 4 4 4 4 4 4 4 4 4 4 4 4 4 4 5 5 5 5 5 5 5 5 5 5 5 5 5 5 5 5
13 4 2 2 3 4 4 4 3 3 2 1 2 4 6 7 8 8 8 7 7 7 7 7 8 8 8 9 8 8 7 6 4 3 2 2 2 2 2 2 2 2 3 3 4 4 4 4 5 5 5 4 4 4 4 4 4 4 4 4 4 4 4 5 6 6 5 5 4 4 4 4 4 4 4 4 4 4 4 4 4 4 4 4 4 5 5 5 5 5 5 5 5 5 5 5 5 5 5 5 5 5 4
23 11 4 4 4 3 4 4 4 4 3 2 1 2 4 6 8 9 8 8 8 7 7 8 8 8 9 9 9 8 7 6 4 3 2 2 1 1 2 2 2 2 2 3 3 3 3 4 4 5 5 4 4 4 4 4 4 4 4 4 4 4 5 5 5 5 5 4 4 3 3 3 3 3 3 4 4 4 4 4 4 4 4 4 5 5 5 5 5 5 5 5 4 4 4 4 4 4 4 4 4 4 4
34 26 7 6 4 3 3 4 4 4 4 3 2 2 2 3 6 8 8 7 7 7 7 7 7 8 8 9 9 8 7 6 4 3 2 2 2 1 1 2 2 2 2 3 3 3 3 4 4 4 4 4 4 4 4 4 4 4 4 4 4 4 4 4 4 4 4 3 3 2 2 2 3 3 3 4 4 4 4 4 4 4 4 4 4 5 5 5 5 5 4 4 4 4 4 4 4 4 4 4 4 4 4
32 36 15 8 4 2 2 3 4 4 4 3 3 2 2 -0 1 4 6 6 6 6 6 6 7 7 8 9 8 8 7 6 4 3 2 2 2 2 1 1 2 2 2 2 3 3 3 3 4 4 4 4 4 4 4 4 4 4 4 4 4 4 4 4 4 4 3 3 2 2 2 2 2 3 3 4 4 4 4 4 4 4 4 4 4 5 5 5 5 5 4 4 4 4 4 4 4 4 4 4 4 4 4
16 25 26 14 6 2 1 2 3 4 4 4 3 3 3 1 -0 0 3 5 6 6 6 6 6 7 7 8 8 8 7 6 5 3 2 2 2 2 2 1 1 2 2 2 2 2 3 3 4 4 3 3 4 4 4 4 4 4 4 4 4 4 4 4 3 3 2 2 2 2 2 2 2 3 3 4 4 4 4 4 4 4 4 4 4 4 5 5 4 4 4 4 4 4 4 4 4 4 4 4 4 4 4
10 20 46 25 11 4 2 1 2 3 4 3 4 5 4 4 2 1 2 4 6 6 6 6 6 6 7 7 8 7 7 6 5 4 2 2 2 2 2 2 1 1 2 2 2 2 2 3 3 3 3 3 4 4 4 4 4 4 4 4 4 4 4 3 3 3 2 2 2 2 2 2 2 3 3 3 3 3 3 3 3 3 3 4 4 4 4 4 4 4 5 5 4 4 4 4 4 4 4 4 4 4 4
7 15 38 32 19 6 2 1 1 2 3 2 2 4 4 4 3 2 1 3 4 5 5 5 5 6 6 7 7 6 6 6 6 5 4 3 2 2 2 2 2 2 2 2 2 2 2 3 3 2 2 2 3 4 4 4 4 4 4 4 4 4 4 3 3 2 2 2 1 2 2 2 2 2 2 2 3 2 2 2 2 2 3 3 4 4 4 4 5 5 5 5 5 4 4 4 4 4 4 4 4 4 4
12 10 19 36 32 16 2 1 1 2 3 2 2 2 2 2 2 1 -0 0 2 4 4 4 5 5 6 6 6 5 6 6 6 5 4 4 3 2 2 2 2 2 2 2 2 2 2 2 2 2 2 2 3 4 4 4 4 4 4 4 4 4 3 3 2 2 2 1 1 1 2 2 2 2 2 2 2 2 2 2 2 2 3 3 4 4 4 5 5 5 5 5 4 4 4 4 4 4 4 4 4 4 4
23 19 8 26 35 31 7 2 0 1 2 2 2 2 2 2 2 2 -0 0 2 3 4 4 5 5 6 6 6 6 6 6 6 6 5 4 4 3 2 2 2 2 2 1 2 2 2 2 2 1 1 2 3 4 4 4 4 4 4 4 4 3 3 3 2 2 1 1 1 2 2 2 2 2 2 2 2 1 1 2 2 2 3 3 4 4 5 5 5 5 5 4 4 4 4 4 4 4 4 4 4 4 4
14 22 15 17 31 39 24 9 2 0 0 1 2 2 2 3 3 3 2 2 3 4 5 5 6 6 7 7 7 6 6 6 6 6 6 5 4 4 3 2 2 2 2 2 2 2 2 2 1 1 1 2 2 3 4 4 4 4 4 4 4 3 3 2 2 2 2 2 2 2 2 2 2 2 2 2 1 1 1 2 2 3 3 4 4 5 5 5 5 5 4 4 4 4 4 4 4 4 4 4 4 4 4
-11 14 29 19 26 37 38 25 14 5 0 0 0 1 2 2 3 4 4 5 5 6 6 6 7 7 7 8 7 7 7 7 6 6 6 6 5 4 4 3 3 2 2 2 2 2 2 2 1 1 1 2 2 3 4 4 4 4 4 4 3 3 3 2 2 2 2 2 2 2 2 2 2 2 2 2 1 1 1 2 2 3 4 4 5 5 5 5 5 5 4 4 4 4 4 4 4 4 4 4 4 4 5
-36 -12 24 23 24 27 33 37 28 15 4 2 1 0 0 1 2 3 5 6 7 7 6 6 6 6 7 7 7 7 8 8 7 7 6 6 6 5 5 4 4 3 2 2 2 2 1 2 1 1 1 2 2 2 3 4 4 4 3 3 3 3 3 3 3 3 2 3 3 3 3 3 3 2 2 2 1 1 1 2 3 4 4 5 6 6 6 6 5 5 4 4 4 4 4 4 4 4 4 4 5 6 6
-32 -19 7 17 20 18 16 31 35 28 10 4 2 0 -0 -0 0 2 4 6 7 8 7 6 5 4 4 5 6 7 8 8 8 7 7 7 7 6 6 6 5 4 3 2 2 2 2 2 2 2 2 1 2 2 3 3 3 3 3 3 3 4 3 3 3 3 3 3 3 3 3 3 3 3 2 2 1 1 1 2 3 4 4 5 6 6 6 6 5 4 4 4 4 4 4 4 4 4 4 5 6 6 7
-20 -14 2 14 15 10 6 14 30 37 22 9 3 1 -1 -1 -0 1 2 4 6 7 8 6 5 3 3 3 4 6 7 7 7 7 7 8 8 8 8 7 6 5 4 3 2 2 2 2 2 2 2 1 2 2 3 3 3 3 3 4 4 4 4 4 4 4 4 4 4 4 4 3 3 2 2 1 1 1 2 2 3 4 4 6 6 6 6 5 5 4 4 4 4 4 4 4 4 4 5 5 5 5 5
-11 -8 9 22 16 5 -1 2 17 33 36 18 8 3 0 -1 -0 1 1 1 3 5 7 7 6 4 2 2 3 5 6 7 7 7 7 8 8 9 9 8 7 6 4 4 3 2 2 2 2 2 2 2 2 2 3 3 3 3 3 4 4 4 5 5 4 4 4 4 4 4 4 3 3 2 2 1 1 1 2 2 3 4 5 6 6 6 6 6 5 5 4 4 4 4 4 4 4 4 4 4 4 3 3
-2 3 24 36 23 5 -4 -1 9 23 38 26 16 7 2 -1 -1 1 0 -1 0 2 4 6 6 5 4 2 3 4 5 6 6 6 7 7 8 8 8 8 7 6 5 4 4 4 3 3 3 3 2 2 2 3 3 3 3 3 4 4 4 5 5 5 5 4 4 4 4 4 4 3 2 2 1 1 1 1 2 2 3 4 5 6 6 6 6 6 5 5 4 4 4 4 4 4 4 4 3 3 2 2 1
7 18 44 47 32 12 4 7 10 18 31 31 23 12 6 1 0 1 2 0 0 1 2 5 6 6 5 3 3 3 5 5 6 6 7 7 8 8 7 7 7 6 6 5 5 4 4 4 4 4 3 3 3 3 3 3 3 3 4 4 4 4 5 5 4 4 4 4 4 3 3 2 2 1 1 1 1 1 2 2 3 4 5 6 6 6 6 6 5 5 4 4 4 4 3 3 3 3 2 2 1 1 1
12 23 42 47 38 24 16 17 16 16 24 31 27 18 11 7 6 5 5 4 4 3 3 4 6 6 5 3 2 3 4 4 5 6 6 7 7 7 6 6 6 6 6 6 5 5 4 4 4 4 4 3 3 3 3 3 3 3 4 4 4 4 4 4 4 4 3 3 3 2 2 1 1 1 0 0 0 1 1 2 3 4 5 6 6 6 6 6 5 4 4 4 4 3 3 2 2 2 2 2 2 2 3
5 11 16 31 33 29 24 26 21 16 18 27 28 24 14 12 11 11 10 8 6 5 5 5 6 6 5 3 2 2 3 4 4 5 6 6 6 6 6 6 6 6 6 6 6 5 5 4 4 4 3 3 3 3 3 3 3 4 4 4 4 4 4 4 4 3 2 2 2 1 1 1 1 0 0 -0 -0 0 1 2 4 5 6 6 6 7 6 5 5 4 4 4 3 3 2 2 2 2 3 4 5 6 7
-6 -3 -7 7 12 10 8 25 25 17 11 22 27 24 15 12 10 10 10 7 6 5 5 5 5 5 5 3 2 2 2 3 4 4 4 4 5 5 5 6 6 7 7 6 6 6 5 5 4 4 4 3 3 3 4 4 4 4 5 4 4 4 4 4 3 2 2 1 0 0 0 1 1 0 0 -0 -0 1 2 3 5 6 6 6 6 6 5 4 4 4 4 3 2 2 1 2 3 4 5 6 7 8 8
-9 -4 -10 -11 -13 -15 -20 7 19 18 7 14 21 22 14 9 6 4 4 6 6 4 4 4 4 4 4 3 1 -0 -0 2 3 3 3 3 4 4 5 6 6 7 7 7 6 6 6 6 5 4 4 4 4 4 4 4 4 5 5 4 4 4 3 3 2 2 1 1 1 1 2 2 2 1 0 -0 0 2 3 5 6 6 6 6 6 6 5 4 4 4 3 3 2 3 3 4 5 6 7 6 6 5 4
-7 2 -2 -17 -25 -28 -28 -10 6 14 9 9 15 20 16 8 3 2 3 9 8 5 3 3 3 3 2 2 -0 -2 -1 -0 1 2 2 2 3 4 4 5 5 6 6 6 6 6 6 6 5 4 4 4 4 4 4 4 5 4 4 4 3 2 2 2 1 1 1 2 2 3 3 3 2 1 0 0 2 3 5 6 7 7 7 7 6 6 5 4 3 3 3 3 4 5 5 6 7 6 6 4 3 1 -0
-6 7 7 -13 -25 -29 -25 -16 -5 6 11 13 17 20 18 10 6 5 6 8 9 8 6 4 3 3 3 4 2 -0 -1 -2 -0 1 2 2 2 2 3 3 4 4 5 5 5 5 5 4 4 4 3 3 3 3 4 4 4 3 3 2 2 1 1 1 1 2 3 3 4 4 4 3 2 1 1 2 3 5 7 8 8 8 7 7 6 6 5 4 3 3 3 3 4 5 5 4 4 2 1 0 -0 -1 -0
-5 9 15 1 -10 -16 -14 -13 -10 -6 2 8 13 16 16 15 15 14 14 10 9 10 13 10 8 6 5 6 5 3 1 0 1 2 3 2 2 1 1 2 2 2 3 3 3 3 3 2 2 2 2 2 2 2 2 2 2 2 2 1 0 0 0 1 2 4 4 5 5 4 3 2 1 1 2 3 5 7 8 9 9 8 7 7 6 5 4 4 3 3 3 4 4 3 1 0 -0 -0 -1 -0 0 1 2
7 18 22 12 5 1 1 -2 -6 -8 -6 -3 -1 2 6 15 21 23 21 17 16 16 18 17 16 14 10 8 6 6 5 6 5 4 2 2 3 2 0 -0 -0 -0 0 0 0 1 0 0 0 0 0 0 0 0 0 1 1 1 1 0 0 1 2 2 4 5 5 4 4 3 2 2 1 2 3 5 7 9 10 10 9 8 7 6 6 5 4 4 3 4 4 4 4 3 2 2 2 3 3 3 3 3 3
18 24 25 16 10 7 9 9 4 0 -1 -2 -3 -5 -3 8 17 22 22 26 27 24 17 17 19 20 18 14 10 9 10 10 9 8 5 4 3 3 3 1 -0 -1 -2 -2 -2 -1 -1 -1 -1 -0 -0 -1 -1 -1 -1 -1 0 1 1 1 2 2 3 4 4 4 4 3 3 2 2 2 3 4 6 8 10 11 11 10 9 8 7 6 5 4 4 3 4 4 4 5 5 5 6 6 6 5 4 4 4 4 4
21 18 17 19 13 7 6 10 10 8 5 5 3 0 -0 8 13 13 9 19 24 23 14 12 15 19 22 19 16 13 13 12 11 10 9 7 3 0 0 2 1 -0 -1 -2 -2 -1 -1 -0 -0 -0 -0 -1 -2 -2 -2 -1 0 1 1 2 2 2 3 4 4 4 3 3 3 3 4 4 6 7 9 10 11 12 11 10 8 7 6 5 4 3 3 3 3 4 5 5 6 6 6 6 5 4 4 4 4 5 5
21 12 3 12 16 15 7 7 8 9 8 8 6 4 5 16 16 8 -6 -2 5 9 7 4 5 9 15 18 18 16 14 12 11 10 8 6 4 2 -0 -1 -0 1 1 1 1 1 1 1 1 1 0 -0 -1 -1 -1 -0 1 2 2 2 2 3 3 4 4 4 4 4 5 5 6 7 8 10 12 12 12 12 10 8 7 6 5 4 3 2 2 2 3 4 5 6 6 7 7 6 5 4 4 4 5 6 7
19 16 6 2 11 20 21 11 6 4 5 6 6 5 7 21 22 13 -5 -11 -9 -5 -3 -5 -5 -2 6 14 18 18 15 11 10 10 7 3 3 5 5 2 2 3 2 3 4 4 4 4 3 2 2 1 0 0 1 1 2 2 2 2 3 3 4 5 5 6 6 7 7 8 9 10 11 12 13 13 12 10 9 7 6 5 4 2 1 1 1 2 4 5 6 6 7 7 8 7 7 6 6 6 7 7 8
14 19 18 8 8 15 31 24 12 1 -2 2 3 4 4 18 24 20 -1 -10 -10 -6 -4 -7 -6 -2 5 14 20 21 18 12 9 8 6 2 1 1 5 6 6 5 4 4 4 5 6 4 4 3 2 2 2 2 2 2 2 2 3 3 4 5 6 7 7 8 9 9 9 10 10 12 13 13 13 12 11 9 7 6 4 4 2 1 0 0 1 3 5 6 7 7 7 7 7 8 8 8 8 8 8 8 8
0 13 21 18 16 17 26 33 23 8 -5 -4 -2 1 2 9 18 19 4 -10 -12 -6 0 3 8 14 19 21 23 24 21 16 11 8 6 3 0 -0 4 8 8 8 9 8 6 5 5 1 1 2 3 3 4 4 3 3 3 3 4 5 6 7 8 8 9 9 9 9 9 10 10 12 13 13 12 10 8 6 5 4 3 2 1 0 -0 1 3 5 6 7 8 7 7 7 7 8 9 10 10 10 10 9 9
-18 -9 5 12 17 22 26 33 31 20 2 -4 -5 -2 1 4 9 13 14 -0 -10 -11 -1 13 25 33 34 33 32 30 26 22 19 15 12 11 10 9 7 9 11 13 13 12 8 4 0 0 1 2 5 5 4 4 3 3 4 4 6 7 8 8 8 8 8 8 8 8 8 9 9 10 11 11 10 8 6 4 3 2 2 1 0 0 0 2 4 6 6 7 7 6 6 6 6 7 9 10 11 11 11 10 10
-23 -27 -20 -8 4 16 28 33 33 27 15 3 -3 -3 1 5 6 10 17 20 8 -5 -6 13 26 35 39 41 42 41 37 33 30 27 23 24 24 22 18 13 11 8 6 4 3 1 1 2 3 4 6 5 4 4 4 4 5 6 7 7 8 8 7 7 7 7 7 7 7 7 8 9 10 9 8 6 4 3 2 1 1 1 0 1 2 3 4 5 6 6 6 6 6 6 7 8 9 10 11 11 12 11 11
-13 -27 -33 -23 -8 9 25 32 34 32 25 13 5 1 4 10 11 12 17 30 22 4 -13 3 15 25 32 39 44 46 44 40 36 32 29 27 27 25 20 13 6 1 -2 -2 -0 1 3 4 4 5 6 5 4 4 5 5 6 6 7 7 6 6 5 5 5 5 5 5 6 6 7 8 8 8 6 4 3 2 1 1 1 1 1 2 3 4 4 5 5 6 6 7 8 8 9 9 9 10 10 11 12 12 12
2 -14 -30 -26 -12 8 26 34 37 35 31 22 14 10 12 16 17 17 20 32 25 4 -24 -9 4 15 23 31 35 36 34 31 28 25 22 19 17 15 12 8 3 -0 -1 -0 0 2 5 5 5 5 7 6 4 3 5 6 6 6 6 5 5 4 4 4 4 5 5 5 5 5 6 6 7 6 5 4 3 2 1 1 1 1 2 2 3 4 4 4 4 5 7 9 10 11 10 9 9 9 9 10 10 10 10
11 1 -17 -20 -8 12 30 36 36 32 32 29 25 22 21 22 22 22 25 33 24 1 -32 -18 -3 10 17 24 26 23 18 15 13 12 12 9 6 4 3 2 1 0 0 2 3 4 5 5 5 5 5 6 6 6 4 4 5 5 5 4 4 4 4 4 5 5 6 6 6 6 5 6 6 6 5 4 3 2 2 1 1 2 2 3 4 4 4 3 3 4 6 9 11 10 9 8 7 7 7 7 7 6 5
16 11 -3 -10 -0 16 33 34 28 23 27 33 35 33 30 28 26 26 28 34 25 3 -31 -22 -8 6 16 22 23 20 17 13 8 4 3 2 1 0 -2 -1 -1 0 2 3 4 5 5 5 5 5 4 4 6 6 6 4 4 4 5 4 4 4 5 6 6 6 7 7 6 6 6 6 6 6 6 4 2 2 1 1 2 3 4 4 4 4 4 3 3 4 6 9 10 8 6 6 6 6 6 4 2 1 -1
18 16 7 1 8 21 32 30 19 11 16 28 34 36 35 32 30 30 33 36 26 5 -23 -18 -9 3 13 18 18 17 19 20 16 10 3 2 3 4 2 2 3 4 5 6 6 5 5 4 4 3 3 3 4 5 5 5 5 5 5 5 5 6 6 7 7 8 8 7 6 6 7 7 7 6 5 3 2 1 1 2 3 4 6 5 5 4 4 4 4 6 9 10 9 7 5 6 6 6 5 2 -0 -1 -1
Height
5830 5832 5833 5835 5836 5838 5840 5841 5842 5844 5846 5847 5849 5850 5852 5853 5855 5856 5858 5859 5860 5861 5863 5864 5865 5866 5866 5868 5869 5870 5871 5871 5872 5872 5873 5873 5873 5874 5874 5875 5876 5876 5877 5877 5878 5879 5880 5881 5881 5881 5882 5883 5884 5885 5886 5886 5887 5887 5888 5888 5889 5890 5890 5891 5891 5892 5892 5893 5893 5894 5894 5895 5895 5896 5896 5897 5897 5897 5898 5898 5899 5899 5899 5900 5900 5900 5901 5901 5901 5901 5902 5902 5902 5902 5903 5903 5903 5903 5903 5904 5904 5904 5904
5828 5830 5831 5833 5834 5836 5837 5839 5841 5842 5844 5845 5847 5848 5850 5852 5853 5855 5856 5857 5859 5860 5861 5862 5863 5864 5865 5866 5867 5869 5869 5870 5871 5871 5871 5872 5872 5873 5873 5874 5875 5875 5876 5877 5878 5879 5880 5880 5881 5881 5881 5882 5883 5884 5885 5886 5886 5887 5887 5888 5888 5889 5890 5890 5891 5891 5892 5892 5893 5893 5894 5894 5895 5895 5896 5896 5897 5897 5897 5898 5898 5898 5899 5899 5900 5900 5900 5901 5901 5901 5901 5901 5902 5902 5902 5902 5903 5903 5903 5903 5903 5904 5904
5826 5827 5829 5831 5832 5834 5836 5837 5839 5841 5842 5844 5845 5847 5848 5850 5851 5853 5854 5856 5857 5858 5860 5861 5862 5863 5864 5865 5866 5867 5868 5869 5870 5870 5871 5871 5871 5872 5872 5873 5874 5874 5875 5876 5877 5878 5879 5880 5880 5880 5880 5881 5883 5884 5884 5885 5886 5886 5887 5887 5888 5888 5889 5890 5890 5891 5891 5892 5892 5893 5893 5894 5894 5895 5895 5896 5896 5896 5897 5897 5898 5898 5898 5899 5899 5900 5900 5900 5900 5901 5901 5901 5901 5901 5902 5902 5902 5902 5903 5903 5903 5903 5903
5825 5826 5826 5828 5830 5832 5833 5835 5837 5839 5840 5842 5843 5845 5847 5849 5850 5851 5853 5854 5856 5857 5858 5859 5860 5861 5862 5864 5865 5866 5867 5868 5868 5869 5870 5870 5870 5871 5871 5872 5873 5873 5874 5875 5876 5877 5878 5879 5879 5880 5879 5881 5882 5883 5884 5884 5885 5886 5886 5887 5887 5888 5889 5889 5890 5890 5891 5891 5892 5892 5893 5893 5894 5894 5895 5895 5896 5896 5896 5897 5897 5897 5898 5898 5898 5899 5899 5900 5900 5900 5900 5901 5901 5901 5901 5901 5902 5902 5902 5902 5902 5902 5903
5822 5824 5825 5826 5828 5830 5831 5833 5835 5837 5838 5840 5842 5843 5845 5847 5848 5849 5852 5853 5854 5855 5856 5857 5859 5860 5861 5862 5863 5864 5866 5866 5867 5868 5868 5869 5869 5870 5870 5871 5871 5872 5873 5874 5875 5876 5876 5877 5878 5879 5879 5880 5881 5882 5883 5883 5884 5885 5886 5886 5887 5887 5888 5889 5889 5890 5890 5891 5891 5892 5892 5893 5893 5894 5894 5895 5895 5895 5896 5896 5896 5897 5897 5898 5898 5898 5899 5899 5899 5900 5900 5900 5900 5901 5901 5901 5901 5901 5901 5902 5902 5902 5902
5820 5821 5823 5825 5826 5828 5830 5831 5833 5835 5836 5838 5840 5842 5844 5844 5846 5847 5849 5851 5852 5854 5855 5856 5857 5858 5860 5861 5862 5863 5864 5865 5866 5866 5867 5868 5868 5869 5869 5870 5871 5871 5872 5873 5874 5875 5876 5877 5877 5878 5878 5880 5881 5881 5882 5883 5883 5884 5885 5886 5886 5887 5887 5888 5889 5889 5890 5890 5891 5891 5892 5892 5893 5893 5893 5894 5894 5895 5895 5896 5896 5896 5897 5897 5897 5898 5898 5898 5899 5899 5899 5900 5900 5900 5900 5901 5901 5901 5901 5901 5901 5901 5902
5818 5820 5821 5823 5825 5826 5828 5829 5831 5833 5835 5836 5838 5841 5843 5844 5845 5846 5847 5849 5850 5852 5853 5855 5856 5857 5858 5859 5861 5861 5863 5864 5865 5865 5866 5866 5867 5868 5868 5869 5870 5871 5871 5872 5873 5874 5875 5876 5876 5877 5878 5879 5880 5881 5881 5882 5883 5883 5884 5885 5886 5886 5887 5887 5888 5889 5889 5890 5890 5891 5891 5892 5892 5892 5893 5893 5894 5894 5895 5895 5896 5896 5896 5896 5897 5897 5897 5898 5898 5898 5899 5899 5899 5900 5900 5900 5900 5900 5901 5901 5901 5901 5901
5816 5818 5820 5821 5823 5824 5826 5827 5829 5831 5833 5834 5836 5838 5841 5842 5844 5845 5846 5847 5849 5850 5851 5853 5854 5856 5857 5858 5859 5860 5861 5862 5863 5864 5865 5865 5866 5866 5867 5868 5869 5869 5870 5871 5872 5873 5874 5875 5876 5876 5877 5878 5879 5880 5880 5881 5882 5883 5883 5884 5885 5886 5886 5887 5887 5888 5888 5889 5890 5890 5891 5891 5891 5892 5892 5893 5893 5894 5894 5895 5895 5895 5896 5896 5896 5896 5897 5897 5897 5898 5898 5898 5899 5899 5899 5900 5900 5900 5900 5900 5901 5901 5901
5814 5816 5818 5819 5821 5822 5824 5825 5827 5829 5831 5832 5834 5836 5838 5840 5841 5843 5844 5845 5847 5849 5850 5851 5853 5854 5855 5856 5857 5859 5860 5861 5861 5862 5863 5864 5865 5866 5866 5867 5868 5868 5869 5870 5871 5872 5873 5874 5875 5876 5876 5877 5878 5879 5879 5880 5881 5882 5883 5883 5884 5885 5886 5886 5887 5887 5888 5888 5889 5890 5890 5891 5891 5891 5892 5892 5893 5893 5894 5894 5894 5895 5895 5896 5896 5896 5896 5896 5897 5897 5897 5898 5898 5898 5898 5899 5899 5900 5900 5900 5900 5900 5901
5812 5814 5816 5817 5819 5820 5821 5823 5825 5827 5829 5830 5832 5834 5836 5837 5839 5841 5841 5843 5846 5847 5848 5849 5851 5852 5854 5855 5856 5857 5858 5859 5860 5861 5862 5863 5864 5864 5865 5866 5867 5867 5868 5869 5870 5871 5872 5873 5874 5875 5876 5876 5877 5878 5878 5880 5881 5881 5882 5883 5883 5884 5885 5886 5886 5887 5887 5888 5888 5889 5889 5890 5890 5891 5891 5892 5892 5893 5893 5893 5894 5894 5895 5895 5895 5896 5896 5896 5896 5896 5897 5897 5897 5898 5898 5898 5899 5899 5899 5899 5900 5900 5900
5810 5812 5814 5815 5816 5818 5820 5821 5823 5825 5826 5828 5830 5832 5833 5835 5837 5839 5840 5841 5843 5845 5846 5848 5849 5851 5852 5853 5855 5856 5857 5858 5859 5860 5861 5861 5862 5863 5864 5865 5866 5867 5867 5868 5869 5870 5871 5872 5873 5874 5875 5876 5877 5877 5878 5879 5880 5880 5881 5882 5882 5883 5884 5885 5885 5886 5886 5887 5888 5888 5889 5889 5890 5890 5891 5891 5891 5892 5892 5893 5893 5893 5894 5894 5895 5895 5895 5896 5896 5896 5896 5896 5897 5897 5898 5898 5898 5898 5899 5899 5899 5900 5900
5808 5810 5812 5813 5815 5816 5817 5819 5821 5823 5825 5826 5828 5830 5831 5833 5835 5837 5838 5840 5841 5843 5845 5846 5847 5849 5851 5852 5853 5854 5855 5856 5857 5858 5859 5860 5861 5862 5863 5864 5865 5866 5866 5867 5868 5869 5870 5871 5872 5873 5874 5875 5876 5876 5877 5878 5879 5880 5880 5881 5882 5882 5883 5884 5885 5885 5886 5886 5887 5887 5888 5889 5889 5890 5890 5890 5891 5891 5892 5892 5892 5893 5893 5894 5894 5894 5895 5895 5895 5896 5896 5896 5896 5897 5897 5897 5898 5898 5898 5899 5899 5899 5900
5806 5808 5809 5811 5812 5814 5815 5817 5819 5821 5823 5825 5826 5827 5829 5831 5833 5835 5836 5838 5840 5841 5843 5844 5846 5847 5849 5850 5851 5853 5854 5855 5856 5857 5858 5859 5860 5861 5862 5863 5864 5865 5866 5866 5867 5868 5869 5870 5871 5872 5873 5875 5875 5876 5876 5877 5878 5879 5880 5880 5881 5882 5882 5883 5884 5885 5885 5886 5886 5887 5887 5888 5888 5889 5889 5890 5890 5891 5891 5891 5892 5892 5892 5893 5893 5894 5894 5894 5895 5895 5895 5896 5896 5896 5896 5897 5897 5897 5898 5898 5898 5899 5899
5803 5806 5806 5808 5810 5811 5813 5815 5817 5819 5821 5823 5824 5826 5826 5828 5831 5833 5834 5836 5837 5839 5841 5842 5844 5846 5847 5848 5850 5851 5852 5853 5854 5855 5856 5857 5858 5860 5861 5862 5863 5864 5865 5866 5866 5867 5868 5869 5870 5871 5872 5874 5874 5874 5875 5876 5877 5878 5879 5880 5881 5881 5882 5882 5883 5884 5884 5885 5886 5886 5887 5887 5887 5888 5888 5889 5889 5890 5890 5891 5891 5891 5892 5892 5892 5893 5893 5894 5894 5894 5895 5895 5896 5896 5896 5896 5897 5897 5897 5897 5898 5898 5899
5801 5802 5804 5806 5807 5809 5811 5813 5815 5817 5819 5821 5823 5824 5825 5826 5828 5830 5832 5833 5835 5837 5839 5840 5842 5844 5845 5846 5848 5849 5851 5852 5853 5854 5855 5856 5857 5858 5859 5861 5861 5863 5864 5865 5866 5866 5867 5868 5869 5871 5872 5873 5873 5873 5874 5875 5876 5877 5878 5879 5880 5881 5882 5882 5882 5883 5884 5884 5885 5885 5886 5886 5887 5887 5888 5888 5889 5889 5890 5890 5891 5891 5891 5891 5892 5892 5892 5893 5893 5894 5894 5895 5895 5895 5896 5896 5896 5896 5897 5897 5897 5898 5898
5799 5800 5801 5803 5805 5807 5809 5810 5812 5815 5817 5820 5822 5822 5822 5824 5826 5828 5831 5831 5833 5835 5836 5838 5840 5841 5843 5845 5846 5848 5849 5850 5851 5852 5853 5855 5856 5857 5858 5859 5861 5861 5862 5864 5865 5866 5866 5867 5868 5870 5871 5872 5872 5872 5872 5874 5876 5876 5877 5878 5879 5880 5881 5882 5882 5882 5883 5883 5884 5885 5885 5886 5886 5886 5887 5888 5888 5888 5889 5889 5890 5890 5891 5891 5891 5891 5892 5892 5893 5893 5894 5894 5894 5895 5895 5895 5896 5896 5896 5896 5897 5897 5897
5797 5798 5799 5801 5803 5805 5806 5808 5810 5813 5815 5818 5819 5820 5821 5822 5824 5826 5828 5830 5831 5832 5834 5836 5838 5840 5841 5843 5845 5846 5847 5849 5850 5851 5852 5853 5854 5856 5857 5858 5859 5860 5861 5862 5864 5865 5866 5866 5867 5869 5870 5871 5871 5871 5871 5873 5875 5876 5876 5877 5878 5879 5880 5881 5881 5881 5882 5883 5883 5884 5885 5885 5886 5886 5886 5887 5887 5888 5888 5889 5889 5890 5890 5890 5891 5891 5891 5892 5892 5892 5893 5893 5894 5894 5894 5895 5895 5895 5896 5896 5896 5896 5897
5795 5796 5796 5799 5801 5802 5804 5806 5808 5811 5813 5815 5816 5817 5819 5820 5821 5823 5826 5827 5829 5830 5832 5834 5836 5837 5839 5841 5843 5844 5846 5847 5848 5849 5851 5852 5853 5854 5856 5857 5858 5859 5860 5861 5862 5863 5865 5866 5866 5868 5869 5869 5869 5869 5871 5872 5874 5875 5876 5876 5877 5879 5879 5879 5880 5881 5881 5882 5882 5883 5884 5884 5885 5885 5886 5886 5886 5887 5887 5888 5888 5889 5889 5890 5890 5890 5891 5891 5891 5892 5892 5893 5893 5893 5894 5894 5894 5895 5895 5895 5896 5896 5896
5791 5793 5794 5796 5798 5800 5802 5804 5806 5808 5810 5812 5813 5814 5816 5818 5820 5821 5823 5825 5826 5828 5830 5832 5834 5835 5837 5839 5841 5843 5844 5846 5847 5848 5849 5850 5851 5853 5854 5855 5856 5858 5859 5860 5861 5862 5863 5864 5866 5867 5868 5868 5868 5868 5870 5871 5873 5874 5875 5876 5876 5877 5878 5878 5879 5879 5880 5881 5881 5882 5883 5883 5884 5884 5885 5885 5886 5886 5887 5887 5888 5888 5888 5889 5889 5890 5890 5891 5891 5891 5891 5892 5892 5893 5893 5893 5894 5894 5894 5894 5895 5895 5895
5788 5790 5792 5794 5796 5797 5799 5801 5804 5806 5807 5810 5811 5812 5813 5815 5817 5819 5821 5822 5824 5826 5828 5830 5831 5833 5835 5837 5839 5841 5843 5844 5845 5846 5847 5849 5850 5851 5852 5854 5855 5856 5858 5859 5860 5861 5862 5863 5865 5866 5866 5866 5866 5867 5869 5870 5871 5873 5874 5875 5875 5876 5877 5878 5878 5878 5879 5880 5881 5881 5882 5882 5883 5884 5884 5885 5885 5886 5886 5886 5887 5887 5888 5888 5888 5889 5889 5890 5890 5890 5891 5891 5891 5892 5892 5893 5893 5893 5893 5894 5894 5894 5894
5786 5787 5788 5791 5793 5795 5797 5799 5801 5803 5805 5808 5808 5809 5811 5813 5815 5816 5818 5820 5822 5824 5826 5827 5829 5831 5833 5835 5837 5839 5841 5842 5844 5845 5846 5847 5848 5849 5851 5852 5853 5855 5856 5858 5859 5860 5861 5862 5863 5865 5865 5865 5865 5866 5868 5869 5871 5871 5872 5873 5874 5875 5876 5876 5877 5877 5878 5879 5880 5880 5881 5881 5882 5883 5883 5884 5884 5885 5885 5886 5886 5886 5887 5887 5888 5888 5889 5889 5889 5890 5890 5890 5891 5891 5891 5892 5892 5892 5892 5893 5893 5893 5894
5781 5783 5785 5787 5790 5792 5794 5797 5799 5801 5802 5805 5806 5806 5808 5810 5812 5814 5816 5818 5820 5822 5824 5826 5827 5829 5831 5833 5836 5838 5839 5841 5842 5843 5844 5845 5846 5848 5849 5850 5852 5853 5855 5856 5857 5859 5860 5861 5862 5863 5864 5864 5864 5866 5867 5868 5869 5870 5871 5872 5873 5874 5875 5875 5876 5876 5877 5878 5879 5879 5880 5881 5881 5882 5882 5883 5883 5884 5885 5885 5885 5886 5886 5886 5887 5887 5888 5888 5889 5889 5889 5890 5890 5890 5891 5891 5891 5891 5891 5892 5892 5892 5893
5778 5779 5782 5785 5787 5790 5792 5795 5797 5799 5800 5802 5804 5805 5806 5808 5810 5812 5814 5816 5818 5820 5822 5824 5826 5828 5830 5832 5834 5836 5838 5839 5840 5841 5842 5844 5845 5846 5847 5849 5850 5852 5853 5855 5856 5857 5858 5860 5861 5862 5862 5863 5863 5865 5866 5867 5868 5869 5870 5871 5872 5873 5874 5874 5875 5875 5876 5877 5878 5878 5879 5880 5880 5881 5881 5882 5882 5883 5884 5884 5885 5885 5885 5886 5886 5886 5887 5887 5888 5888 5888 5889 5889 5889 5890 5890 5890 5891 5891 5891 5891 5891 5891
5776 5779 5781 5782 5784 5787 5790 5792 5795 5796 5798 5800 5801 5803 5804 5806 5808 5810 5812 5814 5816 5818 5821 5822 5824 5826 5828 5830 5832 5834 5836 5837 5838 5840 5841 5842 5843 5844 5846 5847 5849 5850 5852 5853 5854 5856 5857 5858 5860 5861 5861 5861 5862 5864 5865 5866 5866 5868 5869 5870 5871 5872 5873 5873 5874 5874 5875 5876 5876 5877 5878 5879 5879 5880 5881 5881 5881 5882 5883 5883 5884 5884 5885 5885 5885 5886 5886 5886 5887 5887 5887 5888 5888 5888 5889 5889 5889 5889 5890 5890 5890 5891 5891
5777 5776 5777 5779 5782 5785 5788 5790 5792 5795 5796 5798 5799 5801 5803 5805 5806 5808 5810 5812 5815 5816 5819 5821 5822 5824 5826 5828 5830 5832 5834 5835 5836 5838 5839 5840 5841 5843 5844 5846 5847 5849 5850 5851 5853 5854 5855 5857 5858 5859 5860 5860 5861 5863 5863 5864 5865 5866 5867 5868 5870 5871 5871 5872 5873 5873 5874 5875 5875 5876 5877 5878 5878 5879 5879 5880 5881 5881 5882 5882 5883 5883 5884 5884 5884 5885 5885 5886 5886 5886 5886 5887 5887 5887 5888 5888 5888 5888 5889 5889 5889 5889 5890
5778 5775 5774 5776 5779 5782 5785 5788 5790 5792 5794 5796 5797 5800 5803 5804 5805 5806 5808 5811 5812 5815 5816 5818 5820 5822 5824 5826 5828 5830 5832 5833 5835 5836 5837 5838 5840 5841 5843 5844 5846 5847 5849 5850 5851 5852 5853 5855 5857 5858 5858 5859 5860 5861 5862 5863 5864 5865 5866 5867 5868 5869 5870 5871 5871 5872 5872 5873 5874 5875 5876 5876 5877 5878 5878 5879 5879 5880 5881 5881 5881 5882 5882 5883 5883 5884 5884 5884 5885 5885 5885 5886 5886 5886 5886 5887 5887 5887 5887 5888 5888 5888 5889
5779 5774 5772 5774 5776 5779 5782 5785 5787 5790 5792 5794 5795 5797 5799 5802 5803 5804 5806 5808 5811 5813 5815 5816 5818 5820 5822 5824 5826 5828 5830 5831 5833 5834 5835 5836 5838 5840 5841 5843 5844 5846 5847 5848 5850 5851 5852 5854 5856 5856 5856 5857 5859 5860 5861 5862 5863 5864 5865 5866 5867 5868 5869 5870 5871 5871 5871 5872 5873 5874 5875 5876 5876 5876 5877 5878 5878 5879 5880 5880 5881 5881 5881 5882 5882 5882 5883 5883 5884 5884 5884 5885 5885 5885 5886 5886 5886 5886 5886 5887 5887 5887 5887
5778 5775 5773 5772 5773 5776 5780 5782 5785 5787 5790 5791 5793 5794 5796 5799 5801 5803 5804 5806 5809 5811 5813 5814 5816 5818 5820 5822 5824 5826 5828 5830 5831 5832 5833 5835 5836 5838 5839 5841 5843 5844 5846 5847 5848 5849 5851 5852 5854 5855 5855 5856 5857 5859 5860 5861 5861 5863 5864 5865 5866 5866 5867 5868 5869 5870 5870 5871 5872 5873 5874 5874 5875 5876 5876 5876 5877 5878 5878 5879 5879 5880 5880 5881 5881 5881 5882 5882 5882 5883 5883 5883 5884 5884 5884 5885 5885 5885 5885 5886 5886 5886 5886
5776 5775 5773 5771 5770 5773 5776 5779 5781 5784 5787 5790 5791 5792 5794 5796 5798 5801 5803 5805 5807 5809 5811 5812 5814 5816 5818 5821 5824 5826 5827 5828 5829 5830 5831 5833 5834 5836 5838 5839 5841 5842 5844 5845 5846 5847 5849 5851 5852 5853 5853 5854 5856 5857 5858 5859 5860 5861 5862 5863 5864 5865 5866 5867 5868 5868 5869 5870 5871 5871 5872 5873 5874 5874 5875 5876 5876 5876 5877 5877 5878 5878 5879 5879 5880 5880 5881 5881 5881 5881 5882 5882 5883 5883 5883 5883 5884 5884 5884 5884 5885 5885 5885
5774 5775 5773 5768 5767 5770 5773 5776 5778 5781 5784 5787 5789 5789 5791 5794 5796 5798 5801 5803 5805 5807 5809 5811 5812 5814 5816 5819 5821 5824 5825 5826 5826 5827 5829 5831 5832 5834 5836 5837 5839 5841 5842 5843 5844 5846 5847 5850 5851 5851 5851 5853 5854 5856 5857 5858 5859 5860 5861 5862 5863 5864 5865 5866 5866 5867 5867 5868 5869 5870 5871 5872 5872 5873 5874 5874 5875 5875 5876 5876 5877 5877 5878 5878 5878 5879 5879 5880 5880 5881 5881 5881 5881 5882 5882 5882 5882 5883 5883 5883 5883 5884 5884
5771 5775 5775 5769 5766 5766 5770 5773 5775 5778 5781 5783 5785 5786 5789 5791 5794 5796 5798 5801 5803 5805 5807 5809 5810 5812 5814 5816 5818 5821 5823 5823 5824 5826 5827 5829 5831 5832 5834 5835 5837 5839 5840 5841 5842 5844 5846 5848 5849 5849 5850 5851 5853 5854 5855 5856 5858 5859 5860 5861 5862 5863 5864 5864 5865 5866 5866 5867 5868 5869 5870 5870 5871 5871 5872 5873 5873 5874 5874 5875 5876 5876 5876 5877 5877 5878 5878 5878 5879 5879 5880 5880 5880 5881 5881 5881 5881 5881 5881 5882 5882 5882 5882
5766 5771 5775 5770 5766 5764 5766 5769 5772 5774 5777 5779 5782 5784 5786 5789 5791 5794 5796 5799 5801 5802 5804 5806 5808 5810 5812 5814 5816 5818 5820 5821 5822 5823 5825 5827 5828 5830 5831 5833 5835 5836 5838 5839 5841 5842 5844 5846 5847 5847 5848 5850 5851 5853 5854 5855 5856 5857 5858 5859 5861 5861 5862 5863 5863 5864 5865 5866 5866 5867 5868 5869 5870 5870 5871 5871 5872 5872 5873 5874 5874 5875 5875 5876 5876 5876 5877 5877 5877 5878 5878 5879 5879 5879 5879 5880 5880 5880 5880 5880 5881 5881 5881
5759 5764 5770 5769 5766 5763 5765 5766 5768 5771 5773 5776 5779 5781 5784 5786 5789 5792 5794 5796 5798 5800 5802 5804 5806 5807 5810 5811 5814 5816 5817 5818 5820 5821 5823 5825 5826 5828 5829 5831 5833 5834 5836 5837 5839 5841 5842 5844 5845 5846 5847 5848 5850 5851 5852 5854 5855 5856 5857 5858 5859 5860 5861 5862 5863 5863 5864 5864 5865 5866 5866 5867 5868 5869 5869 5870 5871 5871 5872 5872 5873 5873 5874 5874 5875 5875 5876 5876 5876 5876 5877 5877 5877 5878 5878 5878 5878 5878 5879 5879 5879 5879 5880
5751 5757 5765 5767 5766 5766 5766 5767 5767 5767 5771 5774 5776 5779 5781 5784 5787 5790 5792 5794 5795 5797 5799 5801 5802 5805 5807 5809 5811 5813 5815 5816 5817 5819 5821 5822 5824 5825 5827 5829 5831 5832 5834 5835 5837 5839 5840 5842 5843 5844 5845 5847 5848 5850 5851 5852 5853 5854 5856 5857 5858 5859 5860 5861 5861 5861 5861 5862 5863 5864 5865 5866 5866 5867 5868 5868 5869 5870 5870 5871 5871 5872 5872 5873 5873 5874 5874 5874 5875 5875 5875 5876 5876 5876 5876 5877 5877 5877 5877 5877 5878 5878 5878
5748 5752 5759 5764 5768 5769 5768 5767 5765 5765 5768 5771 5774 5776 5779 5782 5785 5787 5789 5791 5792 5794 5796 5797 5800 5802 5804 5806 5809 5811 5812 5813 5815 5816 5818 5820 5821 5823 5825 5826 5828 5830 5832 5833 5835 5836 5838 5840 5841 5842 5844 5845 5846 5848 5849 5851 5852 5853 5854 5855 5856 5857 5858 5858 5859 5860 5860 5861 5861 5862 5863 5864 5865 5865 5866 5867 5867 5868 5869 5869 5870 5870 5871 5871 5871 5872 5872 5873 5873 5873 5874 5874 5874 5875 5875 5875 5875 5876 5876 5876 5876 5876 5876
5749 5751 5754 5761 5769 5772 5771 5767 5764 5763 5766 5768 5771 5774 5777 5781 5784 5785 5786 5787 5789 5791 5792 5795 5797 5800 5802 5805 5807 5809 5810 5811 5812 5814 5816 5818 5819 5821 5823 5825 5826 5828 5830 5831 5833 5835 5836 5838 5839 5841 5842 5843 5845 5846 5848 5849 5850 5851 5852 5853 5855 5855 5856 5857 5857 5858 5858 5859 5860 5861 5861 5862 5863 5864 5864 5865 5866 5866 5867 5867 5868 5868 5869 5869 5870 5870 5871 5871 5872 5872 5872 5872 5873 5873 5873 5873 5874 5874 5874 5874 5875 5875 5875
5749 5751 5752 5758 5766 5773 5772 5768 5765 5763 5763 5766 5768 5771 5775 5780 5782 5782 5782 5784 5786 5788 5790 5792 5795 5798 5800 5803 5805 5806 5808 5809 5810 5812 5814 5816 5817 5819 5821 5822 5824 5826 5827 5829 5831 5832 5834 5836 5837 5838 5840 5841 5843 5845 5846 5847 5848 5849 5851 5852 5853 5854 5854 5855 5856 5856 5857 5857 5858 5859 5860 5861 5861 5862 5862 5863 5864 5865 5865 5866 5866 5866 5867 5868 5868 5869 5869 5869 5870 5870 5871 5871 5871 5871 5871 5872 5872 5872 5873 5873 5873 5873 5874
5747 5749 5751 5755 5762 5769 5769 5766 5764 5763 5760 5763 5766 5769 5772 5776 5778 5779 5779 5781 5783 5786 5788 5790 5793 5796 5798 5801 5803 5804 5805 5806 5808 5810 5812 5814 5815 5817 5819 5820 5822 5824 5825 5827 5829 5830 5832 5834 5835 5836 5838 5840 5841 5843 5845 5846 5847 5847 5849 5850 5851 5852 5852 5853 5853 5854 5855 5856 5856 5857 5858 5859 5860 5860 5861 5861 5862 5863 5863 5864 5864 5865 5865 5866 5866 5867 5867 5868 5868 5868 5869 5869 5869 5870 5870 5870 5871 5871 5871 5872 5872 5872 5872
5746 5748 5750 5753 5759 5764 5765 5763 5763 5762 5760 5762 5764 5766 5769 5772 5774 5776 5777 5779 5780 5782 5785 5788 5791 5793 5796 5798 5800 5801 5802 5804 5806 5807 5810 5811 5813 5815 5816 5818 5820 5821 5823 5825 5826 5828 5830 5832 5833 5835 5837 5838 5840 5841 5843 5844 5845 5846 5846 5847 5849 5850 5851 5851 5852 5852 5853 5854 5854 5855 5856 5857 5858 5858 5859 5860 5860 5861 5861 5862 5862 5863 5863 5864 5865 5865 5866 5866 5866 5867 5867 5867 5867 5868 5868 5869 5869 5869 5870 5870 5870 5871 5871
5744 5746 5747 5751 5757 5761 5762 5762 5763 5762 5760 5760 5762 5765 5768 5770 5772 5773 5775 5776 5777 5780 5783 5786 5788 5791 5793 5796 5797 5798 5800 5801 5803 5805 5807 5809 5811 5812 5814 5816 5817 5819 5820 5822 5824 5826 5828 5830 5831 5833 5835 5837 5838 5839 5840 5841 5842 5843 5844 5845 5846 5847 5848 5849 5850 5851 5851 5852 5852 5853 5854 5855 5856 5856 5857 5858 5858 5859 5860 5860 5861 5861 5861 5862 5863 5863 5864 5864 5864 5865 5865 5865 5866 5866 5866 5867 5868 5868 5867 5868 5868 5869 5869
5743 5744 5746 5750 5755 5758 5761 5762 5762 5761 5757 5758 5760 5764 5767 5770 5771 5772 5772 5775 5776 5778 5781 5783 5786 5789 5791 5793 5794 5796 5797 5799 5801 5803 5805 5807 5808 5810 5811 5813 5815 5816 5818 5820 5822 5824 5826 5828 5830 5831 5833 5835 5836 5836 5837 5838 5840 5841 5842 5843 5844 5845 5846 5847 5848 5848 5849 5850 5851 5851 5852 5853 5854 5855 5855 5856 5856 5857 5857 5858 5859 5859 5860 5860 5861 5861 5862 5862 5862 5863 5863 5863 5864 5864 5864 5865 5865 5866 5866 5866 5866 5866 5866
5742 5743 5744 5748 5751 5755 5758 5761 5762 5760 5756 5756 5759 5763 5766 5769 5771 5772 5772 5773 5775 5776 5779 5781 5784 5786 5788 5790 5791 5792 5794 5796 5798 5800 5803 5805 5806 5807 5809 5811 5812 5814 5816 5818 5820 5822 5824 5826 5828 5829 5831 5832 5833 5834 5834 5836 5837 5839 5840 5841 5842 5843 5844 5845 5846 5846 5847 5848 5849 5849 5850 5851 5852 5852 5853 5854 5854 5855 5856 5856 5857 5857 5858 5858 5859 5860 5860 5860 5861 5861 5861 5861 5862 5862 5862 5863 5863 5863 5864 5864 5864 5864 5864
5740 5741 5742 5744 5747 5751 5754 5758 5760 5760 5757 5757 5760 5764 5767 5768 5770 5771 5772 5771 5771 5773 5776 5779 5781 5783 5785 5787 5788 5790 5791 5793 5795 5798 5800 5802 5803 5805 5807 5809 5811 5812 5814 5816 5818 5820 5822 5824 5826 5827 5829 5830 5831 5832 5832 5834 5836 5837 5838 5839 5840 5841 5841 5842 5843 5844 5845 5846 5847 5847 5848 5849 5850 5850 5851 5852 5852 5853 5854 5855 5855 5856 5856 5856 5857 5858 5858 5858 5858 5859 5860 5860 5860 5860 5861 5861 5861 5861 5861 5862 5862 5862 5862
5738 5739 5741 5742 5744 5746 5749 5752 5756 5758 5759 5759 5761 5764 5766 5768 5769 5769 5768 5768 5769 5771 5774 5776 5779 5781 5782 5784 5785 5786 5788 5790 5793 5795 5798 5799 5801 5803 5805 5807 5809 5811 5813 5815 5817 5819 5821 5822 5824 5825 5826 5828 5829 5830 5831 5832 5833 5835 5836 5836 5837 5838 5839 5840 5841 5842 5843 5844 5845 5846 5846 5847 5848 5849 5850 5850 5851 5851 5852 5853 5853 5853 5854 5855 5855 5856 5856 5856 5856 5857 5857 5858 5858 5858 5859 5859 5860 5860 5860 5861 5861 5861 5861
5736 5737 5738 5741 5742 5743 5744 5747 5751 5755 5758 5758 5759 5760 5762 5765 5766 5766 5766 5766 5767 5769 5771 5774 5776 5778 5781 5781 5782 5784 5785 5787 5790 5793 5795 5797 5799 5801 5803 5806 5807 5810 5811 5813 5815 5817 5818 5820 5821 5823 5824 5826 5827 5828 5829 5830 5831 5832 5833 5834 5835 5836 5837 5838 5839 5840 5841 5842 5843 5844 5845 5845 5846 5847 5848 5848 5848 5849 5850 5851 5851 5851 5852 5852 5853 5854 5854 5854 5854 5855 5855 5856 5856 5856 5856 5857 5858 5858 5858 5858 5858 5859 5859
5735 5736 5737 5738 5740 5742 5744 5745 5747 5751 5754 5756 5756 5757 5758 5760 5762 5763 5763 5764 5766 5767 5770 5771 5774 5777 5779 5780 5781 5781 5782 5785 5788 5791 5793 5795 5796 5799 5801 5803 5805 5807 5809 5811 5813 5814 5816 5817 5819 5820 5821 5823 5825 5826 5827 5828 5829 5830 5831 5831 5833 5834 5835 5836 5837 5838 5838 5840 5841 5842 5843 5843 5844 5845 5845 5846 5846 5847 5848 5848 5849 5849 5850 5850 5851 5852 5852 5852 5852 5852 5853 5854 5855 5855 5855 5855 5856 5856 5856 5856 5856 5856 5857
5733 5736 5737 5738 5739 5740 5742 5744 5746 5748 5751 5753 5755 5756 5757 5758 5760 5762 5761 5762 5764 5765 5767 5769 5772 5774 5775 5776 5777 5779 5780 5783 5786 5788 5790 5792 5794 5796 5798 5801 5803 5805 5806 5808 5810 5811 5813 5814 5816 5817 5819 5821 5822 5824 5825 5826 5826 5827 5828 5829 5830 5831 5832 5834 5835 5836 5836 5837 5838 5839 5840 5841 5841 5842 5843 5844 5844 5845 5846 5846 5846 5847 5847 5848 5849 5850 5850 5850 5850 5850 5851 5852 5853 5853 5853 5853 5853 5854 5854 5854 5854 5854 5855
5732 5735 5736 5737 5737 5738 5740 5742 5745 5747 5749 5751 5754 5756 5757 5759 5761 5762 5761 5761 5761 5763 5766 5768 5769 5770 5772 5773 5775 5776 5778 5781 5784 5786 5788 5789 5791 5793 5796 5798 5800 5802 5804 5805 5807 5809 5810 5811 5813 5814 5816 5818 5820 5821 5822 5823 5824 5825 5826 5826 5828 5829 5830 5831 5833 5834 5834 5835 5836 5837 5837 5838 5839 5840 5841 5841 5842 5842 5843 5844 5844 5845 5845 5846 5846 5847 5847 5848 5848 5848 5848 5849 5850 5850 5850 5851 5851 5851 5851 5851 5852 5852 5852
5730 5731 5734 5735 5736 5736 5737 5739 5743 5746 5748 5749 5751 5753 5756 5759 5762 5764 5764 5763 5762 5762 5764 5765 5766 5767 5769 5771 5772 5774 5777 5779 5781 5783 5785 5786 5788 5791 5793 5795 5797 5799 5801 5803 5804 5806 5807 5808 5810 5811 5813 5815 5817 5818 5819 5821 5821 5822 5823 5824 5825 5826 5828 5829 5831 5832 5832 5833 5834 5835 5835 5836 5837 5837 5838 5839 5840 5840 5841 5841 5842 5842 5843 5844 5844 5845 5845 5846 5846 5846 5846 5846 5847 5847 5848 5848 5849 5849 5849 5849 5850 5850 5850
5727 5729 5730 5732 5733 5734 5735 5737 5740 5744 5747 5749 5750 5752 5754 5758 5761 5764 5764 5763 5762 5761 5761 5761 5763 5765 5767 5768 5770 5772 5775 5777 5779 5781 5782 5783 5785 5787 5790 5792 5794 5796 5798 5800 5801 5803 5804 5806 5807 5809 5810 5812 5814 5815 5816 5818 5819 5820 5820 5821 5823 5824 5826 5826 5828 5829 5830 5831 5831 5832 5833 5834 5835 5835 5836 5836 5837 5838 5838 5839 5839 5840 5841 5841 5842 5842 5843 5843 5843 5843 5844 5844 5844 5845 5846 5846 5846 5846 5846 5847 5847 5848 5848
5725 5726 5726 5729 5731 5733 5733 5734 5737 5741 5744 5747 5750 5752 5753 5757 5760 5761 5762 5762 5761 5759 5759 5759 5761 5763 5765 5766 5768 5770 5772 5775 5777 5778 5778 5780 5782 5785 5787 5790 5791 5793 5796 5798 5799 5800 5801 5803 5804 5806 5807 5809 5811 5813 5814 5815 5816 5817 5818 5819 5821 5822 5823 5824 5826 5826 5827 5828 5829 5830 5831 5831 5832 5833 5833 5834 5835 5835 5836 5836 5837 5838 5838 5839 5839 5840 5840 5841 5841 5841 5841 5841 5842 5843 5844 5844 5844 5844 5844 5844 5845 5845 5846
5722 5723 5725 5726 5728 5731 5732 5732 5734 5736 5739 5743 5746 5749 5751 5753 5756 5758 5759 5760 5760 5759 5757 5757 5759 5761 5762 5764 5766 5767 5770 5771 5774 5775 5776 5777 5780 5782 5784 5786 5788 5790 5792 5795 5796 5798 5799 5800 5801 5803 5805 5806 5808 5810 5811 5813 5814 5815 5816 5817 5819 5820 5821 5822 5823 5824 5825 5826 5826 5827 5828 5829 5830 5830 5831 5831 5832 5833 5833 5834 5835 5835 5836 5836 5837 5837 5838 5838 5838 5838 5839 5839 5840 5841 5841 5841 5842 5842 5842 5842 5842 5843 5843
5719 5721 5722 5723 5725 5727 5730 5731 5732 5733 5736 5738 5741 5745 5748 5750 5752 5754 5755 5757 5758 5758 5756 5756 5756 5758 5759 5761 5762 5764 5766 5767 5769 5771 5773 5775 5777 5779 5781 5783 5785 5787 5789 5791 5793 5794 5796 5797 5799 5801 5802 5804 5806 5807 5809 5810 5812 5813 5814 5816 5816 5817 5819 5820 5820 5821 5822 5823 5824 5825 5826 5826 5827 5828 5829 5829 5830 5830 5831 5831 5832 5833 5834 5834 5834 5835 5835 5835 5836 5836 5836 5837 5837 5838 5838 5839 5839 5840 5840 5840 5840 5840 5841
5717 5718 5719 5721 5722 5724 5726 5728 5730 5731 5733 5735 5737 5741 5744 5746 5749 5751 5752 5753 5755 5756 5756 5755 5755 5756 5756 5757 5758 5760 5763 5764 5766 5767 5769 5771 5774 5776 5777 5780 5782 5784 5786 5788 5789 5791 5793 5795 5797 5798 5800 5801 5803 5805 5806 5808 5810 5811 5812 5813 5814 5815 5816 5817 5818 5819 5820 5820 5821 5822 5823 5824 5825 5825 5826 5827 5828 5828 5828 5829 5830 5831 5831 5831 5832 5832 5833 5833 5833 5834 5834 5835 5835 5835 5836 5836 5837 5837 5837 5837 5837 5838 5838
5714 5716 5717 5718 5720 5722 5723 5724 5726 5728 5731 5732 5734 5737 5740 5742 5745 5747 5749 5750 5751 5753 5755 5755 5755 5754 5754 5754 5755 5757 5761 5762 5764 5765 5766 5769 5771 5773 5774 5777 5780 5782 5784 5785 5786 5788 5791 5794 5795 5796 5797 5799 5801 5802 5804 5806 5807 5808 5810 5811 5811 5812 5813 5814 5815 5816 5817 5818 5819 5820 5821 5822 5822 5823 5823 5824 5825 5826 5826 5827 5828 5828 5829 5829 5829 5830 5830 5831 5831 5831 5832 5832 5832 5832 5833 5833 5834 5835 5835 5835 5835 5835 5835
5712 5713 5715 5716 5718 5719 5721 5722 5723 5725 5727 5730 5731 5733 5736 5739 5741 5743 5745 5747 5748 5750 5753 5754 5753 5751 5751 5751 5753 5755 5758 5761 5762 5764 5766 5767 5769 5771 5772 5774 5776 5778 5780 5782 5785 5787 5790 5791 5792 5793 5795 5797 5799 5800 5801 5803 5805 5806 5807 5808 5809 5810 5811 5811 5812 5813 5814 5815 5816 5817 5818 5819 5820 5820 5821 5821 5822 5823 5823 5824 5825 5826 5826 5826 5827 5827 5828 5828 5828 5829 5829 5830 5830 5830 5830 5831 5831 5832 5832 5832 5832 5833 5833
5710 5711 5713 5714 5716 5718 5719 5720 5721 5722 5724 5726 5728 5730 5733 5736 5737 5739 5742 5744 5746 5748 5751 5752 5751 5750 5750 5750 5751 5753 5756 5758 5761 5763 5765 5766 5767 5768 5770 5771 5773 5775 5777 5780 5783 5786 5787 5788 5789 5790 5792 5795 5796 5797 5799 5800 5801 5803 5804 5805 5806 5807 5808 5809 5810 5811 5811 5812 5814 5815 5816 5816 5817 5818 5818 5819 5819 5820 5821 5822 5822 5823 5823 5824 5824 5825 5825 5826 5826 5826 5827 5827 5827 5827 5828 5828 5829 5830 5830 5830 5830 5830 5830
5708 5710 5711 5713 5714 5716 5717 5718 5719 5720 5721 5723 5725 5727 5729 5731 5734 5736 5738 5741 5743 5746 5748 5750 5751 5751 5750 5750 5751 5752 5754 5756 5759 5761 5763 5764 5764 5765 5766 5769 5771 5774 5776 5777 5780 5782 5783 5785 5786 5787 5790 5792 5793 5794 5796 5797 5799 5800 5801 5802 5803 5804 5805 5806 5807 5808 5809 5810 5811 5812 5813 5814 5815 5815 5816 5816 5817 5817 5818 5819 5820 5820 5821 5821 5821 5822 5822 5823 5823 5824 5824 5825 5825 5825 5825 5826 5827 5827 5828 5828 5828 5828 5828
5706 5708 5709 5711 5713 5714 5716 5716 5717 5718 5719 5720 5721 5723 5726 5728 5730 5732 5734 5736 5740 5743 5745 5748 5749 5750 5749 5750 5751 5751 5752 5754 5756 5758 5759 5761 5761 5762 5763 5766 5768 5770 5772 5774 5777 5779 5780 5781 5783 5785 5788 5789 5790 5791 5793 5794 5796 5797 5798 5799 5800 5801 5802 5803 5804 5805 5806 5807 5808 5809 5810 5811 5811 5812 5813 5814 5814 5815 5815 5816 5816 5817 5818 5818 5819 5819 5819 5820 5820 5821 5821 5822 5822 5823 5823 5824 5825 5825 5825 5825 5825 5825 5826
5704 5706 5708 5709 5711 5712 5714 5715 5716 5716 5716 5717 5719 5721 5722 5724 5726 5728 5731 5734 5737 5740 5743 5745 5746 5746 5747 5748 5749 5751 5751 5752 5753 5754 5756 5757 5758 5759 5761 5763 5765 5767 5769 5772 5774 5776 5778 5779 5781 5783 5785 5786 5787 5789 5790 5791 5793 5794 5796 5796 5797 5798 5799 5801 5801 5802 5803 5804 5805 5806 5807 5808 5808 5809 5810 5811 5811 5812 5813 5813 5813 5814 5815 5816 5816 5816 5816 5817 5817 5818 5819 5819 5820 5820 5821 5822 5822 5823 5823 5823 5823 5823 5823
5702 5704 5706 5708 5709 5711 5712 5713 5714 5714 5715 5716 5716 5718 5720 5721 5723 5726 5729 5731 5735 5738 5741 5742 5743 5744 5745 5746 5747 5749 5751 5751 5751 5753 5754 5755 5756 5758 5760 5761 5763 5765 5767 5769 5771 5773 5775 5777 5779 5780 5781 5783 5785 5786 5787 5788 5790 5791 5792 5793 5794 5795 5796 5797 5798 5799 5801 5801 5802 5803 5804 5805 5806 5806 5807 5808 5809 5810 5811 5810 5811 5811 5812 5812 5812 5813 5813 5814 5815 5815 5816 5816 5817 5817 5818 5819 5820 5821 5821 5820 5820 5820 5820